This is the latest recevied weather packets stored in our database for station/object SA7AHC. If no packets are shown the sender has not sent any weather packets the latest 10 day(s).
| Time | Temp. | Humidity | Pressure | Rain* | Wind** | Luminosity | Snow |
|---|---|---|---|---|---|---|---|
| 1777517047 | 1.11° C | 89% | 1028.9 hPa | 0 mm | - | 0 W/m² | - |
| 1777516444 | 1.11° C | 89% | 1028.9 hPa | 0 mm | - | 0 W/m² | - |
| 1777515832 | 1.11° C | 88% | 1028.9 hPa | 0 mm | - | 0 W/m² | - |
| 1777515227 | 1.11° C | 87% | 1028.8 hPa | 0 mm | - | 0 W/m² | - |
| 1777514627 | 1.67° C | 87% | 1028.9 hPa | 0 mm | - | 0 W/m² | - |
| 1777514023 | 1.67° C | 86% | 1028.9 hPa | 0 mm | - | 0 W/m² | - |
| 1777513422 | 1.67° C | 87% | 1028.9 hPa | 0 mm | - | 0 W/m² | - |
| 1777512821 | 1.67° C | 86% | 1028.9 hPa | 0 mm | - | 0 W/m² | - |
| 1777512220 | 1.67° C | 86% | 1028.9 hPa | 0 mm | - | 0 W/m² | - |
| 1777511614 | 1.67° C | 87% | 1029 hPa | 0 mm | - | 0 W/m² | - |
| 1777511014 | 1.67° C | 86% | 1028.9 hPa | 0 mm | - | 0 W/m² | - |
| 1777510416 | 1.67° C | 86% | 1028.9 hPa | 0 mm | - | 0 W/m² | - |
| 1777509813 | 1.67° C | 86% | 1029 hPa | 0 mm | - | 0 W/m² | - |
| 1777509216 | 1.67° C | 85% | 1029.1 hPa | 0 mm | - | 0 W/m² | - |
| 1777508616 | 1.67° C | 84% | 1029.1 hPa | 0 mm | - | 0 W/m² | - |
| 1777508014 | 2.22° C | 83% | 1029.4 hPa | 0 mm | - | 0 W/m² | - |
| 1777507414 | 2.78° C | 83% | 1029.3 hPa | 0 mm | - | 0 W/m² | - |
| 1777506814 | 2.78° C | 83% | 1029.3 hPa | 0 mm | - | 0 W/m² | - |
| 1777506212 | 2.78° C | 81% | 1029.3 hPa | 0 mm | - | 0 W/m² | - |
| 1777505615 | 3.33° C | 81% | 1029.5 hPa | 0 mm | - | 0 W/m² | - |
| 1777505002 | 3.33° C | 80% | 1029.5 hPa | 0 mm | - | 0 W/m² | - |
| 1777504402 | 3.33° C | 80% | 1029.5 hPa | 0 mm | - | 0 W/m² | - |
| 1777503803 | 2.78° C | 80% | 1029.6 hPa | 0 mm | - | 0 W/m² | - |
| 1777503200 | 2.78° C | 79% | 1029.6 hPa | 0 mm | - | 0 W/m² | - |
| 1777502603 | 2.22° C | 80% | 1029.5 hPa | 0 mm | - | 0 W/m² | - |
* Rain latest hour (hover to see other rain measurements)
** Current wind speed in m/s (hover to see current wind gust speed)